27ème Jogging du Cidre (Thimister)
27ème Jogging du Cidre (Thimister) 03/08/2018 - 8,4 km
Mise à jour le : 03/08/2018 à 20:53
Classement définitif, aucune correction possible
Place Nom Prénom Dossard Temps Vitesse Allure Place. Cat. Catégorie
1 DETHIER JULIEN 888 30:44 16,40 3:39 1 Séniors
2 VERVIER ARNAUD 428 31:01 16,24 3:41 2 Séniors
3 BAAR GREGORY 49 31:54 15,80 3:47 3 Séniors
4 ERNENS GAETHAN 855 32:33 15,48 3:52 4 Séniors
5 DENOOZ DANIEL 219 32:45 15,39 3:53 1 Vétérans 2
6 BARTHOLEMY THIERRY 35 32:56 15,30 3:55 1 Vétérans 1
7 TELLER RENAUD 649 33:01 15,26 3:55 5 Séniors
8 DEBROUX SEBASTIEN 144 33:04 15,24 3:56 2 Vétérans 1
9 DELCHAMBRE RENAUD 736 33:11 15,18 3:57 3 Vétérans 1
10 BOULANGER BRYAN 107 33:49 14,90 4:01 6 Séniors
11 JANDRAIN FRANCOIS 381 34:02 14,80 4:03 4 Vétérans 1
12 HENRARD GUILLAUME 322 34:13 14,72 4:04 7 Séniors
13 ESTEBEZ ANDRE 810 34:38 14,55 4:07 5 Vétérans 1
14 LODOMEZ OLIVIER 454 34:52 14,45 4:09 8 Séniors
15 KANOO YVES 816 34:56 14,43 4:09 6 Vétérans 1
16 TIMMERMANN ALEXANDRE 656 34:58 14,41 4:09 9 Séniors
17 LECLOUX SEBASTIEN 840 35:00 14,40 4:10 7 Vétérans 1
18 LEHAEN PIERRE-OLIVIER 436 35:05 14,36 4:10 8 Vétérans 1
19 CORBUSIER NICOLAS 117 35:08 14,34 4:10 10 Séniors
20 CIOMEK FREDERIC 97 35:12 14,31 4:11 9 Vétérans 1
21 HENDRICK JULIEN 831 35:32 14,18 4:13 11 Séniors
22 LACROIX ANTOINE 879 35:32 14,18 4:13 12 Séniors
23 DAMOISEAU THIERRY 168 35:40 14,13 4:14 10 Vétérans 1
24 D'AFFNAY JEAN-FRANCOIS 162 35:42 14,11 4:15 13 Séniors
25 MERTES ADRIEN 447 35:46 14,09 4:15 14 Séniors
26 DEBIOLLE FREDERIC 206 35:50 14,06 4:16 15 Séniors
27 BEUKEN SERGE 77 35:52 14,05 4:16 2 Vétérans 2
28 GEROMBOUX BERTRAND 363 36:02 13,98 4:17 16 Séniors
29 GOMZE MICHEL 5 36:12 13,92 4:18 3 Vétérans 2
30 SERVAIS ARILLE 848 36:25 13,84 4:20 4 Vétérans 2
31 MULLER FRANCOISE 628 36:28 13,82 4:20 1 Ainées 1
32 SIEBENBOUR MICHEL 629 36:29 13,81 4:20 5 Vétérans 2
33 LEHANSE BERNARD 388 36:35 13,77 4:21 17 Séniors
34 TELLER BENJAMIN 648 36:38 13,75 4:21 18 Séniors
35 LONNEUX SIMON 408 36:42 13,73 4:22 19 Séniors
36 SANGIOVANNI GIAN CARLO 592 36:47 13,70 4:22 11 Vétérans 1
37 PETRUZZELLI PIERRE 529 36:58 13,63 4:24 20 Séniors
38 FLAMAND MICHAEL 257 37:02 13,61 4:24 21 Séniors
39 DESSOUROUX JEAN 227 37:04 13,59 4:24 1 Vétérans 3
40 HERMANS ROBBY 809 37:26 13,46 4:27 22 Séniors
41 ROSA HUGUES 565 37:29 13,44 4:27 12 Vétérans 1
42 THONNARD SEVERINE 651 37:31 13,43 4:27 2 Ainées 1
43 DELOYER LAURENT 817 37:33 13,42 4:28 13 Vétérans 1
44 COOLEN GERARD 889 37:34 13,41 4:28 14 Vétérans 1
45 CABAY JEAN MARC 42 37:38 13,39 4:28 6 Vétérans 2
46 CALIFICE BERTRAND 143 37:46 13,34 4:29 23 Séniors
47 COLLINS BRENDAN 887 37:56 13,28 4:31 24 Séniors
48 WINTGENS DAVID 886 37:56 13,28 4:31 25 Séniors
49 FROIDMONT DANIELLE 263 37:59 13,27 4:31 1 Ainées 2
50 LEGROS GHISLAIN 379 38:01 13,26 4:31 15 Vétérans 1
51 DEGUELDRE VINCENT 801 38:05 13,23 4:32 26 Séniors
52 EVRARD AMAURY 269 38:10 13,20 4:32 27 Séniors
53 PIRONT BENOIT 542 38:12 13,19 4:32 28 Séniors
54 JORIS JONATHAN 843 38:15 13,18 4:33 29 Séniors
55 SCHREURS FABRICE 901 38:16 13,17 4:33 16 Vétérans 1
56 RUWET NICOLAS 835 38:17 13,16 4:33 30 Séniors
57 DELVOYE ARNAUD 224 38:19 13,15 4:33 31 Séniors
58 SPRONCK JONATHAN 638 38:21 13,14 4:33 32 Séniors
59 COUNE JEROME 826 38:23 13,13 4:34 33 Séniors
60 REMACLE ROMAIN 900 38:30 13,09 4:35 34 Séniors
61 DERU FABIAN 233 38:33 13,07 4:35 17 Vétérans 1
62 PIRENNE AURELIEN 914 38:35 13,06 4:35 1 Espoirs Garçons
63 DELHEZ FLORENTIN 212 38:38 13,04 4:35 35 Séniors
64 WEICKMANS DAVID 684 38:43 13,01 4:36 36 Séniors
65 SCHNAKERS ARNAUD 595 38:50 12,98 4:37 37 Séniors
66 SPRONCK HERVE 636 38:53 12,96 4:37 38 Séniors
67 RENARD ANTOINE 907 38:57 12,94 4:38 39 Séniors
68 FONTAINE SERGE 291 38:59 12,92 4:38 18 Vétérans 1
69 FISCHER RAPHAEL 292 39:02 12,91 4:38 40 Séniors
70 GEORGES SEBASTIEN 101 39:05 12,89 4:39 41 Séniors
71 XHONNEUX RENAUD 898 39:25 12,79 4:41 19 Vétérans 1
72 HANSEZ ANNE 827 39:43 12,69 4:43 1 Dames
73 SOMJA VICTOR 527 39:53 12,64 4:44 2 Vétérans 3
74 VAN TOMME YVES 806 40:09 12,55 4:46 7 Vétérans 2
75 SCHNACKERS GUILLAUME 910 40:10 12,54 4:46 42 Séniors
76 POLLET VINCENT 846 40:13 12,53 4:47 20 Vétérans 1
77 LEMAIRE MICHAEL 434 40:20 12,49 4:48 21 Vétérans 1
78 SLUYSMANS MARTIN 392 40:22 12,48 4:48 8 Vétérans 2
79 DONY PHILIPPE 273 40:28 12,45 4:49 22 Vétérans 1
80 LAMBOT FREDERIC 389 40:32 12,43 4:49 43 Séniors
81 VANDERBEEMEN ROMAIN 882 40:36 12,41 4:50 44 Séniors
82 OURY PATRICE 530 40:39 12,40 4:50 9 Vétérans 2
83 GOEDERS CHARLES ETIENNE 877 40:43 12,37 4:50 23 Vétérans 1
84 DUMOULIN PHILIPPE 833 40:45 12,37 4:51 10 Vétérans 2
85 LEMAIRE GUILLAUME 497 40:47 12,36 4:51 45 Séniors
86 HABETS JEROME 878 40:49 12,34 4:51 46 Séniors
87 PIRARD PHILIPPE 547 40:52 12,33 4:52 47 Séniors
88 PISCART FRANCOISE 348 40:55 12,32 4:52 2 Ainées 2
89 HARDY MARC 437 40:58 12,30 4:52 24 Vétérans 1
90 MEYS CLAUDE 616 41:00 12,29 4:52 11 Vétérans 2
91 PIRNAY CHRISTOPHE 860 41:03 12,28 4:53 48 Séniors
92 DALLA CORTE LUDOVIC 193 41:04 12,27 4:53 49 Séniors
93 BYNENS NICOLAS 138 41:11 12,23 4:54 3 Vétérans 3
94 KEVELAER BEATRICE 361 41:19 12,19 4:55 3 Ainées 2
95 COLLARD SERGE 145 41:23 12,18 4:55 12 Vétérans 2
96 BECKERS JOEL 893 41:26 12,16 4:56 25 Vétérans 1
97 SCHYNS DAVID 864 41:28 12,15 4:56 50 Séniors
98 DELTOUR ROMAIN 891 41:30 12,14 4:56 2 Espoirs Garçons
99 DEBIOLLE SEBASTIEN 875 41:32 12,13 4:56 51 Séniors
100 HEYNEN JACQUES 908 41:49 12,05 4:58 52 Séniors
101 PALM GRÉGORY 913 41:54 12,03 4:59 53 Séniors
102 MOTTEN JAMES 804 41:58 12,01 4:59 54 Séniors
103 COUNET JEAN MARC 839 42:02 11,99 5:00 55 Séniors
104 VANHAY RONNY 808 42:05 11,97 5:00 26 Vétérans 1
105 DARCIS JOEL 899 42:12 11,94 5:01 56 Séniors
106 LAMBION PIERRE 851 42:13 11,93 5:01 57 Séniors
107 STEPHANY CHRISTIAN 857 42:15 11,93 5:01 27 Vétérans 1
108 CHEFNEUX SEBASTIEN 140 42:18 11,91 5:02 28 Vétérans 1
109 ETIENNE LAURE 285 42:29 11,86 5:03 2 Dames
110 BIDOUL GIL 75 42:33 11,84 5:03 58 Séniors
111 LOGNARD STEPHANIE 406 42:35 11,83 5:04 3 Dames
112 CUPERS PHILIPPE 159 42:45 11,79 5:05 13 Vétérans 2
113 HANS VINCENT 862 42:54 11,75 5:06 29 Vétérans 1
114 PESSER CHRISTIAN 834 42:56 11,74 5:06 30 Vétérans 1
115 JOWAY ERIC 393 42:57 11,73 5:06 14 Vétérans 2
116 VOLDERS VINCENT 874 43:01 11,71 5:07 31 Vétérans 1
117 VANDER HEYDEN CLAIRE 700 43:07 11,69 5:08 4 Ainées 2
118 LAMBION LOIC 850 43:09 11,68 5:08 59 Séniors
119 HEUSSCHEN DOMINIQUE 359 43:12 11,66 5:08 15 Vétérans 2
120 LONNEUX MARCEL 458 43:13 11,66 5:08 16 Vétérans 2
121 BECKERS ANAIS 892 43:15 11,65 5:08 1 Espoirs Filles
122 LAHAYE FRANCOIS 814 43:23 11,62 5:09 60 Séniors
123 DENOZ BENJAMIN 844 43:36 11,56 5:11 61 Séniors
124 CORDEWENER CELINE 841 43:38 11,55 5:11 4 Dames
125 ELOYE JONATHAN 686 43:40 11,54 5:11 62 Séniors
126 VANWERST BRUNO 890 43:49 11,50 5:12 17 Vétérans 2
127 CARABIN PHILIPPE 815 43:53 11,48 5:13 4 Vétérans 3
128 EVRARD JOHAN 270 43:55 11,47 5:13 63 Séniors
129 DEFOSSE JEAN MARIE 803 44:03 11,44 5:14 5 Vétérans 3
130 VANNESTE LIESBETH 870 44:05 11,43 5:14 5 Dames
131 PIRLOT BERNARD 541 44:07 11,42 5:15 64 Séniors
132 PICQUOT SIMON 837 44:13 11,40 5:15 65 Séniors
133 FAUCONNIER NICOLAS 819 44:18 11,38 5:16 66 Séniors
134 SOMJA JEAN-PHILIPPE 532 44:19 11,37 5:16 67 Séniors
135 HOOFS PHILIPPE 350 44:23 11,35 5:17 68 Séniors
136 CORTLEVEN WILLY 818 44:30 11,33 5:17 1 Vétérans 4
137 LEMAIRE CEDRIC 440 44:30 11,32 5:17 69 Séniors
138 SCHWAIGER YVES 699 44:35 11,30 5:18 32 Vétérans 1
139 MAQUO CELINE 845 44:40 11,28 5:19 6 Dames
140 HEINRICHS GREGORY 346 44:41 11,28 5:19 70 Séniors
141 VERCAMMEN MICHEL 427 44:45 11,26 5:19 33 Vétérans 1
142 LAMBOTTE PASCAL 872 44:47 11,25 5:19 18 Vétérans 2
143 LAMBERT CHRISTOPHE 413 44:50 11,24 5:20 71 Séniors
144 DERU TOM 894 44:51 11,23 5:20 3 Espoirs Garçons
145 LAMBOTTE MANON 871 44:53 11,23 5:20 2 Espoirs Filles
146 CUPERS EVELYNE 800 44:54 11,22 5:20 5 Ainées 2
147 DEVIVIER MARC 295 44:59 11,20 5:21 72 Séniors
148 DELREZ SANDRA 238 45:00 11,20 5:21 6 Ainées 2
149 SCHYNS EGIDE 863 45:02 11,19 5:21 19 Vétérans 2
150 MOSSAY ALYSSON 912 45:04 11,18 5:21 7 Dames
151 GARIN JOHAN 911 45:06 11,17 5:22 73 Séniors
152 FOGUENNE JOSE 906 45:12 11,15 5:22 20 Vétérans 2
153 EL-BALDI SAID 258 45:25 11,10 5:24 34 Vétérans 1
154 PHILIPPE AUDREY 693 46:08 10,92 5:29 3 Ainées 1
155 HANSROUL NICOLAS 312 46:11 10,91 5:29 74 Séniors
156 CHEBIL RAMI 139 46:14 10,90 5:30 35 Vétérans 1
157 LA COLA GIOACHINO 822 46:25 10,86 5:31 21 Vétérans 2
158 MIDRE ARNAUD 869 46:27 10,85 5:31 4 Espoirs Garçons
159 POUWELS JEAN_MARIE 813 46:50 10,76 5:34 22 Vétérans 2
160 VOSS JEAN-LOUIS 673 47:05 10,70 5:36 6 Vétérans 3
161 PESSER MARC 858 47:08 10,69 5:36 75 Séniors
162 WIERTZ JONATHAN 852 47:09 10,69 5:36 76 Séniors
163 GHARBI BRAHIM 883 47:11 10,68 5:37 77 Séniors
164 MEYER THOMAS 904 47:15 10,67 5:37 7 Vétérans 3
165 FORMATIN MANON 854 47:16 10,66 5:37 8 Dames
166 JÉRÔME STÉPHANE 856 47:18 10,65 5:37 36 Vétérans 1
167 LEJEUNE PHILIP 811 47:21 10,64 5:38 8 Vétérans 3
168 ANCION JEAN PASCAL 915 47:26 10,62 5:38 23 Vétérans 2
169 FETTWEIS GAELLE 280 47:42 10,57 5:40 9 Dames
170 LIOTA CALOGERO 916 47:44 10,56 5:40 78 Séniors
171 CORIN EDWIN 861 47:45 10,55 5:41 79 Séniors
172 SUM DIM 881 47:48 10,54 5:41 80 Séniors
173 TASE ALEX 880 47:56 10,51 5:42 81 Séniors
174 MUYLKENS ARMELLE 485 48:02 10,49 5:43 3 Espoirs Filles
175 PAULUS FREDERIC 865 48:21 10,42 5:45 37 Vétérans 1
176 SCHOONBROODT CHRISTOPHE 868 48:21 10,42 5:45 38 Vétérans 1
177 BASTIN PIERRE-YVES 866 48:24 10,41 5:45 39 Vétérans 1
178 PIRARD SEVERINE 896 48:25 10,41 5:45 4 Ainées 1
179 ERNENS MARJORIE 853 48:27 10,40 5:46 10 Dames
180 ISERENTANT THOMAS 909 48:30 10,39 5:46 82 Séniors
181 TELLER ALICIA 646 48:33 10,38 5:46 11 Dames
182 MARECHAL BERNADETTE 438 48:34 10,38 5:46 1 Ainées 3
183 SCHNAKERS JEAN YVES 820 48:41 10,35 5:47 83 Séniors
184 DUYSENS JEANNOT 262 49:13 10,24 5:51 9 Vétérans 3
185 MEENS MELANIE 902 49:30 10,18 5:53 12 Dames
186 LOOZEN ODILE 903 49:30 10,18 5:53 13 Dames
187 WERGIFOSSE JACKY 830 49:39 10,15 5:54 10 Vétérans 3
188 GILLON PATRICK 876 49:47 10,12 5:55 40 Vétérans 1
189 CURTZ ROBERT 849 49:52 10,11 5:56 41 Vétérans 1
190 LAMBERT HENRI 533 50:04 10,07 5:57 42 Vétérans 1
191 BERTRANG JULIEN 79 50:18 10,02 5:59 2 Vétérans 4
192 MARCHOUL CHRISTOPHE 828 50:36 9,96 6:01 1 Vétérans 5
193 VANDEBERG PAUL 418 50:41 9,94 6:02 3 Vétérans 4
194 BRAGARD BENOIT 118 50:47 9,92 6:02 24 Vétérans 2
195 RAES GUY 812 51:13 9,84 6:05 11 Vétérans 3
196 FASSIN ELODIE 189 51:21 9,81 6:06 14 Dames
197 VROMEN PIERRE-YVES 675 51:21 9,81 6:06 84 Séniors
198 FARDEAU ALEXANDRA 842 52:20 9,63 6:13 15 Dames
199 DUYSENS CHRISTOPHE 873 52:49 9,54 6:17 43 Vétérans 1
200 ISERENTANT CAROLINE 905 53:18 9,45 6:20 5 Ainées 1
201 RENWART SABRINA 895 53:23 9,44 6:21 16 Dames
202 BRAGARD EDMEE 721 53:31 9,42 6:22 7 Ainées 2
203 DEFLANDRE JEAN MARIE 146 53:31 9,42 6:22 25 Vétérans 2
204 JACOB JOEL 335 53:40 9,39 6:23 44 Vétérans 1
205 BUCHET LAETITIA 859 53:48 9,37 6:24 6 Ainées 1
206 DEMONTY JEAN MARIE 847 55:23 9,10 6:35 12 Vétérans 3
207 KAILS MICHEL 829 55:38 9,06 6:37 26 Vétérans 2
208 EL-BALDI HINDE 183 55:41 9,05 6:37 4 Espoirs Filles
209 SCHMETZ LOUIS 824 56:35 8,90 6:44 2 Vétérans 5
210 DETRY MARIE-FRANCE 210 57:18 8,79 6:49 8 Ainées 2
211 TELLER NATHALIE 885 57:46 8,72 6:52 7 Ainées 1
212 DRUMMEN PATRICIA 867 58:06 8,67 6:55 9 Ainées 2
213 DELBEUCK AURORE 199 58:38 8,59 6:58 8 Ainées 1
214 RENWART JOSEPH 897 1:00:30 8,33 7:12 13 Vétérans 3
215 DEFOSSE MONIQUE 802 1:02:08 8,11 7:23 2 Ainées 3
216 HERZET MARLENE 254 1:04:42 7,79 7:42 3 Ainées 3